Time,TemperatureF,DewpointF,PressureIn,WindDirection,WindDirectionDegrees,WindSpeedMPH,WindSpeedGustMPH,Humidity,HourlyPrecipIn,Conditions,Clouds,dailyrainin,SoftwareType,DateUTC
2013-04-02 00:02:00,30.0,-99.9,29.77,NW,315,6.0,9.0,-999,0.00,,,0.00,,2013-04-02 05:02:00,
2013-04-02 00:12:00,30.0,-99.9,29.77,NW,315,6.0,9.0,-999,0.00,,,0.00,,2013-04-02 05:12:00,
2013-04-02 00:23:00,29.0,-99.9,29.77,NW,315,6.0,9.0,-999,0.00,,,0.00,,2013-04-02 05:23:00,
2013-04-02 00:33:00,29.0,-99.9,29.77,NW,315,6.0,9.0,-999,0.00,,,0.00,,2013-04-02 05:33:00,
2013-04-02 00:43:00,29.0,-99.9,29.77,NW,315,6.0,9.0,-999,0.00,,,0.00,,2013-04-02 05:43:00,
2013-04-02 00:52:00,29.0,-99.9,29.77,NW,315,6.0,10.0,-999,0.00,,,0.00,,2013-04-02 05:52:00,
2013-04-02 01:03:00,29.0,-99.9,29.77,West,270,0.0,8.0,-999,0.00,,,0.00,,2013-04-02 06:03:00,
2013-04-02 01:12:00,29.0,-99.9,29.77,West,270,0.0,8.0,-999,0.00,,,0.00,,2013-04-02 06:12:00,
2013-04-02 01:22:00,28.0,-99.9,29.77,NW,315,0.0,6.0,-999,0.00,,,0.00,,2013-04-02 06:22:00,
2013-04-02 01:32:00,28.0,-99.9,29.77,NW,315,6.0,9.0,-999,0.00,,,0.00,,2013-04-02 06:32:00,
2013-04-02 01:42:00,28.0,-99.9,29.77,NW,315,6.0,9.0,-999,0.00,,,0.00,,2013-04-02 06:42:00,
2013-04-02 01:52:00,27.0,-99.9,29.77,NW,315,5.0,8.0,-999,0.00,,,0.00,,2013-04-02 06:52:00,
2013-04-02 02:02:00,27.0,-99.9,29.77,WNW,293,5.0,9.0,-999,0.00,,,0.00,,2013-04-02 07:02:00,
2013-04-02 02:13:00,27.0,-99.9,29.77,WNW,293,5.0,9.0,-999,0.00,,,0.00,,2013-04-02 07:13:00,
2013-04-02 02:22:00,27.0,-99.9,29.77,NW,315,5.0,8.0,-999,0.00,,,0.00,,2013-04-02 07:22:00,
2013-04-02 02:32:00,26.0,-99.9,29.77,NW,315,1.0,6.0,-999,0.00,,,0.00,,2013-04-02 07:32:00,
2013-04-02 02:43:00,26.0,-99.9,29.77,NW,315,1.0,6.0,-999,0.00,,,0.00,,2013-04-02 07:43:00,
2013-04-02 02:53:00,26.0,-99.9,29.77,NW,315,3.0,7.0,-999,0.00,,,0.00,,2013-04-02 07:53:00,
2013-04-02 03:02:00,26.0,-99.9,29.77,NW,315,5.0,7.0,-999,0.00,,,0.00,,2013-04-02 08:02:00,
2013-04-02 03:14:00,26.0,-99.9,29.77,NW,315,5.0,7.0,-999,0.00,,,0.00,,2013-04-02 08:14:00,
2013-04-02 03:23:00,26.0,-99.9,29.77,NW,315,6.0,8.0,-999,0.00,,,0.00,,2013-04-02 08:23:00,
2013-04-02 03:32:00,26.0,-99.9,29.77,WNW,293,3.0,7.0,-999,0.00,,,0.00,,2013-04-02 08:32:00,
2013-04-02 03:43:00,26.0,-99.9,29.77,WNW,293,3.0,7.0,-999,0.00,,,0.00,,2013-04-02 08:43:00,
2013-04-02 03:53:00,26.0,-99.9,29.77,West,270,0.0,7.0,-999,0.00,,,0.00,,2013-04-02 08:53:00,
2013-04-02 04:02:00,25.0,-99.9,29.77,NW,315,0.0,7.0,-999,0.00,,,0.00,,2013-04-02 09:02:00,
2013-04-02 04:13:00,25.0,-99.9,29.77,NW,315,0.0,7.0,-999,0.00,,,0.00,,2013-04-02 09:13:00,
2013-04-02 04:22:00,25.0,-99.9,29.77,West,270,6.0,7.0,-999,0.00,,,0.00,,2013-04-02 09:22:00,
2013-04-02 04:33:00,25.0,-99.9,29.77,NW,315,5.0,6.0,-999,0.00,,,0.00,,2013-04-02 09:33:00,
2013-04-02 04:43:00,25.0,-99.9,29.77,NW,315,5.0,6.0,-999,0.00,,,0.00,,2013-04-02 09:43:00,
2013-04-02 04:53:00,24.0,-99.9,29.77,NW,315,6.0,8.0,-999,0.00,,,0.00,,2013-04-02 09:53:00,
2013-04-02 05:03:00,24.0,-99.9,29.77,NW,315,6.0,9.0,-999,0.00,,,0.00,,2013-04-02 10:03:00,
2013-04-02 05:13:00,24.0,-99.9,29.77,NW,315,6.0,9.0,-999,0.00,,,0.00,,2013-04-02 10:13:00,
2013-04-02 05:24:00,24.0,-99.9,29.77,WNW,293,5.0,8.0,-999,0.00,,,0.00,,2013-04-02 10:24:00,
2013-04-02 05:33:00,24.0,-99.9,29.77,WSW,248,1.0,7.0,-999,0.00,,,0.00,,2013-04-02 10:33:00,
2013-04-02 05:43:00,24.0,-99.9,29.77,WSW,248,1.0,7.0,-999,0.00,,,0.00,,2013-04-02 10:43:00,
2013-04-02 05:53:00,23.0,-99.9,29.77,NNW,338,0.0,0.0,-999,0.00,,,0.00,,2013-04-02 10:53:00,
2013-04-02 06:03:00,23.0,-99.9,29.77,NNW,338,5.0,9.0,-999,0.00,,,0.00,,2013-04-02 11:03:00,
2013-04-02 06:12:00,23.0,-99.9,29.77,NNW,338,5.0,9.0,-999,0.00,,,0.00,,2013-04-02 11:12:00,
2013-04-02 06:23:00,24.0,-99.9,29.77,NNW,338,6.0,9.0,-999,0.00,,,0.00,,2013-04-02 11:23:00,
2013-04-02 06:33:00,24.0,-99.9,29.77,NNW,338,6.0,10.0,-999,0.00,,,0.00,,2013-04-02 11:33:00,
2013-04-02 06:43:00,24.0,-99.9,29.77,NNW,338,6.0,10.0,-999,0.00,,,0.00,,2013-04-02 11:43:00,
2013-04-02 06:53:00,24.0,-99.9,29.77,NNW,338,7.0,10.0,-999,0.00,,,0.00,,2013-04-02 11:53:00,
2013-04-02 07:02:00,24.0,-99.9,29.77,NNW,338,5.0,9.0,-999,0.00,,,0.00,,2013-04-02 12:02:00,
2013-04-02 07:12:00,24.0,-99.9,29.77,NNW,338,5.0,9.0,-999,0.00,,,0.00,,2013-04-02 12:12:00,
2013-04-02 07:23:00,24.0,-99.9,29.77,NW,315,3.0,8.0,-999,0.00,,,0.00,,2013-04-02 12:23:00,
2013-04-02 07:32:00,25.0,-99.9,29.77,NW,315,3.0,6.0,-999,0.00,,,0.00,,2013-04-02 12:32:00,
2013-04-02 07:43:00,25.0,-99.9,29.77,NW,315,3.0,6.0,-999,0.00,,,0.00,,2013-04-02 12:43:00,
2013-04-02 07:53:00,25.0,-99.9,29.77,NNW,338,5.0,7.0,-999,0.00,,,0.00,,2013-04-02 12:53:00,
2013-04-02 08:02:00,26.0,-99.9,29.77,NNW,338,3.0,7.0,-999,0.00,,,0.00,,2013-04-02 13:02:00,
2013-04-02 08:12:00,28.0,-99.9,29.77,NNW,338,2.0,7.0,-999,0.00,,,0.00,,2013-04-02 13:12:00,
2013-04-02 08:23:00,28.0,-99.9,29.77,NNW,338,2.0,7.0,-999,0.00,,,0.00,,2013-04-02 13:23:00,
2013-04-02 08:33:00,29.0,-99.9,29.77,NNW,338,3.0,8.0,-999,0.00,,,0.00,,2013-04-02 13:33:00,
2013-04-02 08:42:00,29.0,-99.9,29.77,NNW,338,3.0,8.0,-999,0.00,,,0.00,,2013-04-02 13:42:00,
2013-04-02 08:52:00,30.0,-99.9,29.77,NNW,338,5.0,9.0,-999,0.00,,,0.00,,2013-04-02 13:52:00,
2013-04-02 09:02:00,31.0,-99.9,29.77,North,0,3.0,9.0,-999,0.00,,,0.00,,2013-04-02 14:02:00,
2013-04-02 09:13:00,31.0,-99.9,29.77,North,0,3.0,9.0,-999,0.00,,,0.00,,2013-04-02 14:13:00,
2013-04-02 09:23:00,33.0,-99.9,29.77,North,0,5.0,9.0,-999,0.00,,,0.00,,2013-04-02 14:23:00,
2013-04-02 09:33:00,33.0,-99.9,29.77,North,0,7.0,9.0,-999,0.00,,,0.00,,2013-04-02 14:33:00,
2013-04-02 09:43:00,33.0,-99.9,29.77,North,0,7.0,9.0,-999,0.00,,,0.00,,2013-04-02 14:43:00,
2013-04-02 09:52:00,35.0,-99.9,29.77,North,0,2.0,10.0,-999,0.00,,,0.00,,2013-04-02 14:52:00,
2013-04-02 10:02:00,34.0,-99.9,29.77,NNW,338,2.0,8.0,-999,0.00,,,0.00,,2013-04-02 15:02:00,
2013-04-02 10:12:00,34.0,-99.9,29.77,NNW,338,2.0,8.0,-999,0.00,,,0.00,,2013-04-02 15:12:00,
2013-04-02 10:23:00,35.0,-99.9,29.77,NW,315,3.0,8.0,-999,0.00,,,0.00,,2013-04-02 15:23:00,
2013-04-02 10:33:00,37.0,-99.9,29.77,NW,315,2.0,10.0,-999,0.00,,,0.00,,2013-04-02 15:33:00,
2013-04-02 10:43:00,37.0,-99.9,29.77,NW,315,2.0,10.0,-999,0.00,,,0.00,,2013-04-02 15:43:00,
2013-04-02 10:58:00,37.0,-99.9,29.77,NNW,338,3.0,8.0,-999,0.00,,,0.00,,2013-04-02 15:58:00,
2013-04-02 11:04:00,39.0,-99.9,29.77,North,0,2.0,7.0,-999,0.00,,,0.00,,2013-04-02 16:04:00,
2013-04-02 11:14:00,39.0,-99.9,29.77,North,0,2.0,7.0,-999,0.00,,,0.00,,2013-04-02 16:14:00,
2013-04-02 11:25:00,38.0,-99.9,29.77,North,0,5.0,8.0,-999,0.00,,,0.00,,2013-04-02 16:25:00,
2013-04-02 11:39:00,39.0,-99.9,29.77,WSW,248,0.0,10.0,-999,0.00,,,0.00,,2013-04-02 16:39:00,
2013-04-02 11:54:00,41.0,-99.9,29.77,NNW,338,7.0,12.0,-999,0.00,,,0.00,,2013-04-02 16:54:00,
2013-04-02 12:14:00,42.0,-99.9,29.77,WNW,293,6.0,12.0,-999,0.00,,,0.00,,2013-04-02 17:14:00,
2013-04-02 12:25:00,41.0,-99.9,29.77,NW,315,5.0,13.0,-999,0.00,,,0.00,,2013-04-02 17:25:00,
2013-04-02 12:35:00,43.0,-99.9,29.77,NW,315,1.0,13.0,-999,0.00,,,0.00,,2013-04-02 17:35:00,
2013-04-02 12:44:00,43.0,-99.9,29.77,NW,315,1.0,13.0,-999,0.00,,,0.00,,2013-04-02 17:44:00,
2013-04-02 12:57:00,43.0,-99.9,29.77,North,0,7.0,12.0,-999,0.00,,,0.00,,2013-04-02 17:57:00,
2013-04-02 13:05:00,44.0,-99.9,29.77,NNW,338,8.0,13.0,-999,0.00,,,0.00,,2013-04-02 18:05:00,
2013-04-02 13:13:00,44.0,-99.9,29.77,NNW,338,8.0,13.0,-999,0.00,,,0.00,,2013-04-02 18:13:00,
2013-04-02 13:23:00,44.0,-99.9,29.77,NW,315,2.0,10.0,-999,0.00,,,0.00,,2013-04-02 18:23:00,
2013-04-02 13:35:00,45.0,-99.9,29.77,WNW,293,3.0,12.0,-999,0.00,,,0.00,,2013-04-02 18:35:00,
2013-04-02 13:43:00,45.0,-99.9,29.77,WNW,293,3.0,12.0,-999,0.00,,,0.00,,2013-04-02 18:43:00,
2013-04-02 13:57:00,48.0,-99.9,29.77,WNW,293,0.0,6.0,-999,0.00,,,0.00,,2013-04-02 18:57:00,
2013-04-02 14:03:00,48.0,-99.9,29.77,West,270,1.0,14.0,-999,0.00,,,0.00,,2013-04-02 19:03:00,
2013-04-02 14:13:00,48.0,-99.9,29.77,West,270,1.0,14.0,-999,0.00,,,0.00,,2013-04-02 19:13:00,
2013-04-02 14:23:00,46.0,-99.9,29.77,WSW,248,9.0,14.0,-999,0.00,,,0.00,,2013-04-02 19:23:00,
2013-04-02 14:34:00,49.0,-99.9,29.77,NW,315,7.0,12.0,-999,0.00,,,0.00,,2013-04-02 19:34:00,
2013-04-02 14:47:00,49.0,-99.9,29.77,NW,315,7.0,12.0,-999,0.00,,,0.00,,2013-04-02 19:47:00,
2013-04-02 14:57:00,48.0,-99.9,29.77,North,0,5.0,10.0,-999,0.00,,,0.00,,2013-04-02 19:57:00,
2013-04-02 15:04:00,48.0,-99.9,29.77,NNW,338,8.0,13.0,-999,0.00,,,0.00,,2013-04-02 20:04:00,
2013-04-02 15:14:00,48.0,-99.9,29.77,NNW,338,8.0,13.0,-999,0.00,,,0.00,,2013-04-02 20:14:00,
2013-04-02 15:23:00,50.0,-99.9,29.77,NW,315,0.0,12.0,-999,0.00,,,0.00,,2013-04-02 20:23:00,
2013-04-02 15:34:00,50.0,-99.9,29.77,NNW,338,3.0,14.0,-999,0.00,,,0.00,,2013-04-02 20:34:00,
2013-04-02 15:44:00,50.0,-99.9,29.77,NNW,338,3.0,14.0,-999,0.00,,,0.00,,2013-04-02 20:44:00,
2013-04-02 15:55:00,50.0,-99.9,29.77,NNW,338,3.0,14.0,-999,0.00,,,0.00,,2013-04-02 20:55:00,
2013-04-02 16:05:00,50.0,-99.9,29.77,NW,315,8.0,14.0,-999,0.00,,,0.00,,2013-04-02 21:05:00,
2013-04-02 16:13:00,50.0,-99.9,29.77,NW,315,8.0,14.0,-999,0.00,,,0.00,,2013-04-02 21:13:00,
2013-04-02 16:23:00,50.0,-99.9,29.77,WNW,293,7.0,17.0,-999,0.00,,,0.00,,2013-04-02 21:23:00,
2013-04-02 16:35:00,51.0,-99.9,29.77,WNW,293,7.0,14.0,-999,0.00,,,0.00,,2013-04-02 21:35:00,
2013-04-02 16:44:00,51.0,-99.9,29.77,WNW,293,7.0,14.0,-999,0.00,,,0.00,,2013-04-02 21:44:00,
2013-04-02 16:57:00,51.0,-99.9,29.77,West,270,8.0,13.0,-999,0.00,,,0.00,,2013-04-02 21:57:00,
2013-04-02 17:05:00,53.0,-99.9,29.77,WNW,293,7.0,13.0,-999,0.00,,,0.00,,2013-04-02 22:05:00,
2013-04-02 17:14:00,53.0,-99.9,29.77,WNW,293,7.0,13.0,-999,0.00,,,0.00,,2013-04-02 22:14:00,
2013-04-02 17:25:00,53.0,-99.9,29.77,West,270,5.0,12.0,-999,0.00,,,0.00,,2013-04-02 22:25:00,
2013-04-02 17:34:00,51.0,-99.9,29.77,WNW,293,8.0,16.0,-999,0.00,,,0.00,,2013-04-02 22:34:00,
2013-04-02 17:44:00,51.0,-99.9,29.77,WNW,293,8.0,16.0,-999,0.00,,,0.00,,2013-04-02 22:44:00,
2013-04-02 17:54:00,52.0,-99.9,29.77,West,270,5.0,13.0,-999,0.00,,,0.00,,2013-04-02 22:54:00,
2013-04-02 18:03:00,52.0,-99.9,29.77,West,270,6.0,15.0,-999,0.00,,,0.00,,2013-04-02 23:03:00,
2013-04-02 18:13:00,52.0,-99.9,29.77,NNW,338,5.0,15.0,-999,0.00,,,0.00,,2013-04-02 23:13:00,
2013-04-02 18:24:00,52.0,-99.9,29.77,NNW,338,5.0,15.0,-999,0.00,,,0.00,,2013-04-02 23:24:00,
2013-04-02 18:37:00,49.0,-99.9,29.77,West,270,6.0,12.0,-999,0.00,,,0.00,,2013-04-02 23:37:00,
2013-04-02 18:43:00,49.0,-99.9,29.77,West,270,6.0,12.0,-999,0.00,,,0.00,,2013-04-02 23:43:00,
2013-04-02 18:55:00,47.0,-99.9,29.77,WNW,293,7.0,10.0,-999,0.00,,,0.00,,2013-04-02 23:55:00,
2013-04-02 19:05:00,46.0,-99.9,29.77,NW,315,6.0,12.0,-999,0.00,,,0.00,,2013-04-03 00:05:00,
2013-04-02 19:13:00,46.0,-99.9,29.77,NW,315,6.0,12.0,-999,0.00,,,0.00,,2013-04-03 00:13:00,
2013-04-02 19:26:00,43.0,-99.9,29.77,NW,315,2.0,9.0,-999,0.00,,,0.00,,2013-04-03 00:26:00,
2013-04-02 19:34:00,41.0,-99.9,29.77,NW,315,1.0,5.0,-999,0.00,,,0.00,,2013-04-03 00:34:00,
2013-04-02 19:48:00,41.0,-99.9,29.77,NW,315,1.0,5.0,-999,0.00,,,0.00,,2013-04-03 00:48:00,
2013-04-02 19:57:00,41.0,-99.9,29.77,NNW,338,0.0,5.0,-999,0.00,,,0.00,,2013-04-03 00:57:00,
2013-04-02 20:04:00,40.0,-99.9,29.77,NW,315,0.0,3.0,-999,0.00,,,0.00,,2013-04-03 01:04:00,
2013-04-02 20:13:00,40.0,-99.9,29.77,NW,315,0.0,3.0,-999,0.00,,,0.00,,2013-04-03 01:13:00,
2013-04-02 20:23:00,39.0,-99.9,29.77,NW,315,0.0,0.0,-999,0.00,,,0.00,,2013-04-03 01:23:00,
2013-04-02 20:34:00,38.0,-99.9,29.77,NNW,338,0.0,3.0,-999,0.00,,,0.00,,2013-04-03 01:34:00,
2013-04-02 20:43:00,38.0,-99.9,29.77,NNW,338,0.0,3.0,-999,0.00,,,0.00,,2013-04-03 01:43:00,
2013-04-02 21:14:00,37.0,-99.9,29.77,NNW,338,0.0,0.0,-999,0.00,,,0.00,,2013-04-03 02:14:00,
2013-04-02 21:25:00,36.0,-99.9,29.77,NNW,338,0.0,0.0,-999,0.00,,,0.00,,2013-04-03 02:25:00,
2013-04-02 21:34:00,36.0,-99.9,29.77,NW,315,0.0,7.0,-999,0.00,,,0.00,,2013-04-03 02:34:00,
2013-04-02 21:44:00,36.0,-99.9,29.77,NW,315,0.0,7.0,-999,0.00,,,0.00,,2013-04-03 02:44:00,
2013-04-02 21:53:00,33.0,-99.9,29.77,NW,315,0.0,0.0,-999,0.00,,,0.00,,2013-04-03 02:53:00,
2013-04-02 22:06:00,32.0,-99.9,29.77,NW,315,0.0,0.0,-999,0.00,,,0.00,,2013-04-03 03:06:00,
2013-04-02 22:14:00,32.0,-99.9,29.77,NW,315,0.0,0.0,-999,0.00,,,0.00,,2013-04-03 03:14:00,
2013-04-02 22:23:00,32.0,-99.9,29.77,NW,315,0.0,0.0,-999,0.00,,,0.00,,2013-04-03 03:23:00,
2013-04-02 22:38:00,33.0,-99.9,29.77,NW,315,0.0,0.0,-999,0.00,,,0.00,,2013-04-03 03:38:00,
2013-04-02 22:44:00,33.0,-99.9,29.77,NW,315,0.0,0.0,-999,0.00,,,0.00,,2013-04-03 03:44:00,
2013-04-02 22:54:00,33.0,-99.9,29.77,NW,315,0.0,0.0,-999,0.00,,,0.00,,2013-04-03 03:54:00,
2013-04-02 23:03:00,32.0,-99.9,29.77,NW,315,0.0,0.0,-999,0.00,,,0.00,,2013-04-03 04:03:00,
2013-04-02 23:13:00,32.0,-99.9,29.77,NW,315,0.0,0.0,-999,0.00,,,0.00,,2013-04-03 04:13:00,
2013-04-02 23:23:00,32.0,-99.9,29.77,NW,315,0.0,0.0,-999,0.00,,,0.00,,2013-04-03 04:23:00,
2013-04-02 23:33:00,31.0,-99.9,29.77,NW,315,0.0,0.0,-999,0.00,,,0.00,,2013-04-03 04:33:00,
2013-04-02 23:43:00,31.0,-99.9,29.77,NW,315,0.0,0.0,-999,0.00,,,0.00,,2013-04-03 04:43:00,
2013-04-02 23:53:00,31.0,-99.9,29.77,NW,315,0.0,0.0,-999,0.00,,,0.00,,2013-04-03 04:53:00,